Total_Precipitation_Accumulation
0.41 0.40 0.33 0.20 0.16 0.23 0.29 0.19 0.17 0.17 0.19 0.19 0.17 0.14 0.12 0.10 0.10 0.11 0.24 0.32 0.71 0.69 0.49 0.50 0.60 0.64 0.63 0.66 0.63 0.61 0.70 0.78 0.79
0.33 0.21 0.22 0.16 0.14 0.14 0.18 0.24 0.21 0.17 0.22 0.16 0.11 0.08 0.05 0.06 0.07 0.14 0.22 0.38 0.54 0.48 0.46 0.41 0.44 0.48 0.51 0.52 0.56 0.65 0.82 0.89 0.89
0.47 0.23 0.23 0.24 0.20 0.19 0.20 0.24 0.24 0.20 0.16 0.11 0.10 0.07 0.05 0.04 0.10 0.11 0.15 0.36 0.32 0.31 0.33 0.36 0.36 0.38 0.42 0.49 0.59 0.74 0.87 0.87 0.81
0.44 0.34 0.32 0.37 0.33 0.29 0.27 0.23 0.24 0.23 0.15 0.15 0.10 0.06 0.04 0.05 0.03 0.04 0.11 0.29 0.33 0.28 0.30 0.31 0.38 0.47 0.47 0.55 0.61 0.67 0.74 0.79 0.88
0.38 0.34 0.37 0.40 0.38 0.42 0.35 0.31 0.30 0.29 0.17 0.10 0.10 0.04 0.04 0.04 0.04 0.05 0.18 0.27 0.31 0.32 0.32 0.33 0.39 0.51 0.59 0.66 0.68 0.64 0.62 0.68 0.71
0.32 0.30 0.24 0.26 0.39 0.39 0.41 0.43 0.33 0.25 0.09 0.05 0.05 0.07 0.08 0.05 0.06 0.10 0.27 0.33 0.34 0.36 0.42 0.58 0.77 0.77 0.77 0.75 0.64 0.59 0.61 0.58 0.56
0.43 0.36 0.31 0.20 0.25 0.30 0.38 0.42 0.26 0.14 0.06 0.04 0.05 0.07 0.06 0.07 0.07 0.12 0.30 0.27 0.26 0.28 0.41 0.56 0.47 0.38 0.46 0.52 0.49 0.47 0.50 0.55 0.58
0.50 0.54 0.42 0.30 0.20 0.23 0.32 0.32 0.22 0.10 0.06 0.05 0.05 0.05 0.02 0.06 0.07 0.19 0.32 0.26 0.27 0.33 0.32 0.39 0.31 0.28 0.33 0.36 0.36 0.41 0.44 0.45 0.52
0.62 0.37 0.37 0.38 0.34 0.29 0.30 0.24 0.24 0.18 0.08 0.06 0.04 0.03 0.02 0.04 0.06 0.10 0.22 0.36 0.39 0.36 0.35 0.37 0.33 0.29 0.29 0.31 0.39 0.44 0.44 0.42 0.45
0.78 0.67 0.38 0.29 0.28 0.28 0.31 0.27 0.25 0.30 0.19 0.11 0.09 0.06 0.03 0.03 0.05 0.06 0.10 0.28 0.30 0.31 0.37 0.42 0.42 0.40 0.39 0.42 0.45 0.46 0.46 0.44 0.44
0.82 0.61 0.48 0.27 0.21 0.26 0.28 0.30 0.23 0.23 0.24 0.13 0.15 0.15 0.13 0.08 0.07 0.07 0.09 0.17 0.24 0.24 0.22 0.24 0.33 0.40 0.45 0.47 0.53 0.51 0.46 0.45 0.42
0.91 0.83 0.57 0.33 0.26 0.32 0.45 0.32 0.37 0.31 0.26 0.21 0.23 0.27 0.21 0.22 0.19 0.16 0.11 0.11 0.14 0.18 0.20 0.41 0.46 0.44 0.51 0.75 0.81 0.66 0.54 0.48 0.49
0.68 0.94 0.67 0.69 0.62 0.58 0.57 0.77 0.44 0.38 0.36 0.17 0.15 0.18 0.29 0.30 0.28 0.30 0.23 0.13 0.12 0.13 0.15 0.30 0.56 0.69 0.74 1.00 1.34 1.23 0.93 0.76 0.69
0.49 0.55 0.91 0.76 0.84 0.76 0.66 0.78 0.92 0.69 0.49 0.39 0.25 0.17 0.16 0.25 0.33 0.32 0.29 0.23 0.19 0.13 0.19 0.24 0.33 0.50 0.57 0.62 0.91 1.45 1.24 1.05 0.99
0.92 0.62 0.62 1.09 0.79 0.81 0.68 0.64 0.76 0.95 0.80 0.55 0.35 0.30 0.29 0.29 0.28 0.36 0.39 0.38 0.39 0.33 0.32 0.32 0.32 0.41 0.40 0.42 0.57 0.87 1.34 1.39 1.50
1.06 0.87 0.65 0.88 0.91 0.60 0.67 0.58 0.58 0.72 0.84 0.80 0.56 0.36 0.54 0.75 0.78 0.70 0.62 0.60 0.58 0.68 0.55 0.41 0.32 0.29 0.45 0.51 0.42 0.49 0.74 0.99 1.27
1.01 1.00 0.98 0.78 0.81 0.81 0.69 0.68 0.65 0.52 0.58 0.62 0.53 0.36 0.22 0.31 0.45 0.49 0.35 0.26 0.38 0.44 0.55 0.64 0.54 0.34 0.25 0.27 0.37 0.42 0.47 0.69 0.91
1.82 1.35 1.44 1.31 1.07 1.03 0.94 1.01 0.92 0.77 0.66 0.54 0.57 0.47 0.28 0.19 0.12 0.16 0.19 0.23 0.22 0.24 0.27 0.31 0.36 0.31 0.28 0.32 0.35 0.43 0.58 0.70 0.90
2.54 2.31 1.93 2.03 1.91 1.61 1.53 1.41 1.48 1.47 1.31 1.09 0.80 0.73 0.58 0.53 0.30 0.16 0.24 0.25 0.26 0.28 0.26 0.25 0.34 0.44 0.43 0.54 0.62 0.73 0.83 0.83 0.83
2.93 2.43 2.30 2.30 2.62 2.36 2.38 2.30 2.07 1.79 1.46 1.22 1.07 0.94 0.89 0.86 1.01 0.73 0.37 0.29 0.22 0.23 0.26 0.29 0.35 0.42 0.49 0.58 0.65 0.70 0.78 0.78 0.83